{"data":{"norad_id":68242,"intl_designator":"2026-054L","name":"STARLINK-36356","alt_names":[],"object_type":"PAYLOAD","status":"ACTIVE","operator":null,"country":"US","launch_date":"2026-03-17","launch_site_code":"AFETR","launch_vehicle":null,"mission":null,"orbit_class":"UNKNOWN","rcs_meters":null,"size_class":null,"mass_kg":null,"dimensions":null,"purposes":["comms"],"wikipedia_slug":null,"has_3d_model":false,"image_url":null,"decayed_at":null,"tle_current":{"epoch":"2026-05-24T15:47:13.146720Z","epoch_age_seconds":100821,"freshness":"FRESH","line1":"1 68242U 26054L   26144.65779105  .00013621  00000+0  47118-3 0  9992","line2":"2 68242  53.1572 303.9976 0000673  62.1942 297.9127 15.30198431 10625","mean_motion":15.30198431,"eccentricity":6.73e-5,"inclination_deg":53.1572,"raan_deg":303.9976,"arg_perigee_deg":62.1942,"mean_anomaly_deg":297.9127,"bstar":0.00047118,"rev_number":1062,"period_min":94.105442198039,"perigee_km":474.75852326496,"apogee_km":475.68098508407,"semimajor_km":6853.3567541745,"source":"CELESTRAK","updated_at":"2026-05-25T13:38:21.884957Z"}}}